Regional Weather Roundup
Issued by NWS

Home | Current Version | Previous Version | Graphics & Text | Print | Product List | Glossary On
Versions: 1 2 3 4 5 6 7 8 9 10 11 12 13 14 15 16 17 18 19 20 21 22 23 24 25 26 27 28 29 30 31 32 33 34 35 36 37 38 39 40 41 42 43 44 45 46 47 48 49 50
000
ASUS43 KBIS 210420
RWRND

NORTH DAKOTA REGIONAL WEATHER ROUNDUP
NATIONAL WEATHER SERVICE BISMARCK ND
1100 PM CDT MON APR 20 2015

NOTE: "FAIR" INDICATES FEW OR NO CLOUDS BELOW 12,000 FEET WITH NO
SIGNIFICANT WEATHER AND/OR OBSTRUCTIONS TO VISIBILITY.


NDZ001>003-009>011-017-210500-
NORTHWEST NORTH DAKOTA

CITY           SKY/WX    TMP DP  RH WIND       PRES   REMARKS
WILLISTON      CLEAR     27  14  58 CALM      29.80F
MINOT          MOCLDY    36  15  42 NW12      29.77S
MINOT AFB      MOCLDY    38  16  41 NW13      29.77S
$$

NDZ018>021-031>035-040>046-210500-
SOUTHWEST NORTH DAKOTA

CITY           SKY/WX    TMP DP  RH WIND       PRES   REMARKS
BISMARCK       CLEAR     40  11  30 N12       29.78S
DICKINSON      CLEAR     30  16  56 W7        29.80S
GARRISON         N/A     33  16  49 NW9       29.77F
HETTINGER ARPT CLEAR     28  15  58 NW3       29.85R
$$

NDZ004>008-012>016-024-026-027-054-210500-
NORTHEAST NORTH DAKOTA

CITY           SKY/WX    TMP DP  RH WIND       PRES   REMARKS
GRAND FORKS    CLOUDY    34  27  75 N25G33    29.65S
GRND FRKS AFB  CLOUDY    32  27  80 N26       29.65S WCI  18
DEVILS LAKE    PTCLDY    34  25  69 N23G32    29.70F
$$

NDZ022-023-025-028>030-036>039-047>053-210500-
SOUTHEAST NORTH DAKOTA

CITY           SKY/WX    TMP DP  RH WIND       PRES   REMARKS
FARGO          MIX PCPN  36  29  75 N24       29.65S
JAMESTOWN      PTCLDY    36  26  67 NW13      29.69R
$$




USA.gov is the U.S. government's official web portal to all federal, state and local government web resources and services.